Miscellaneous Local Product
Issued by NWS Hastings, NE

Home | Current Version | Previous Version | Graphics & Text | Print | Product List | Glossary On
Versions: 1 2 3 4 5 6 7 8 9 10 11 12 13 14 15 16 17 18 19 20 21 22 23 24 25 26 27 28 29 30 31 32 33 34 35 36 37 38 39 40 41 42 43 44 45 46 47 48 49 50
000
AXUS43 KGID 241302
MISGRI

GID CWA HOURLY WEATHER ROUNDUP
NATIONAL WEATHER SERVICE HASTINGS NE
800 AM CDT SUN JUL 24 2016

NOTE: "FAIR" INDICATES FEW OR NO CLOUDS BELOW 12,000 FEET WITH NO
SIGNIFICANT WEATHER AND/OR OBSTRUCTIONS TO VISIBILITY.

...SOUTH CENTRAL NEBRASKA...

CITY           SKY/WX    TMP DP  RH WIND       PRES   REMARKS
GRAND ISLAND   PTSUNNY   71  66  84 N6        29.98R
HASTINGS       CLOUDY    71  66  84 NE7       29.99R
KEARNEY        CLOUDY    70  63  78 N6        30.01R
ORD            MOSUNNY   69  64  84 W3        29.99R
YORK           MOSUNNY   73  66  78 NE7       29.97R
AURORA         MOSUNNY   71  68  89 NE6       29.97S
LEXINGTON      CLOUDY    70  61  75 E9        30.01R
HOLDREGE       CLOUDY    71  64  78 E5        30.02R
HEBRON         CLOUDY    79  70  74 E6        29.96R

...NEBRASKA PANHANDLE...

CITY           SKY/WX    TMP DP  RH WIND       PRES   REMARKS
CHADRON        PTSUNNY   60  50  69 NW3       30.13R
ALLIANCE       MOSUNNY   64  58  80 NE3       30.14R
SCOTTSBLUFF    MOSUNNY   67  57  70 NW10      30.12R
SIDNEY         CLOUDY    65  57  75 S5        30.16F

...WESTERN AND NORTH CENTRAL NEBRASKA...

CITY           SKY/WX    TMP DP  RH WIND       PRES   REMARKS
VALENTINE      CLOUDY    68  51  54 N14       30.06R
AINSWORTH      CLOUDY    66  61  84 N13       30.06S
ONEILL         SUNNY     70  64  81 N7        30.02R
BROKEN BOW     CLOUDY    69  62  78 NE5       30.02R
IMPERIAL       CLOUDY    70  62  76 CALM      30.07R
NORTH PLATTE   PTSUNNY   69  59  70 S10       30.05R
MCCOOK         CLOUDY    70  62  76 SE6       30.03R

...EASTERN NEBRASKA...

CITY           SKY/WX    TMP DP  RH WIND       PRES   REMARKS
NORFOLK        SUNNY     73  63  70 NW5       29.96R
SO SIOUX CITY  SUNNY     78  65  63 N8        29.91R
TEKAMAH        SUNNY     76  70  82 N5        29.91R
COLUMBUS       MOSUNNY   73  59  60 CALM      29.98R
ALBION         MOSUNNY   70  64  82 CALM      29.99R
OMAHA EPPLEY   MOSUNNY   79  73  82 N6        29.90R
OFFUTT AFB     MOSUNNY   80  74  82 N9        29.90R
MILLARD        SUNNY     80  72  76 N6        29.91R
LINCOLN        SUNNY     79  70  74 N6        29.93R
NEBRASKA CITY  PTSUNNY   79  78  97 N7        29.92R
BEATRICE       MOSUNNY   80  73  80 E6        29.95R
FALLS CITY     CLOUDY    82  72  71 W8        29.90R

...NORTHERN KANSAS...

CITY           SKY/WX    TMP DP  RH WIND       PRES   REMARKS
GOODLAND       MOSUNNY   71  64  78 NE7       30.06R
HILL CITY      LGT RAIN  75  68  78 N18       29.96F
NORTON         SUNNY     73  63  68 NE8       30.00
SMITH CENTER   MOSUNNY   75  66  73 NE13G22   29.97R
BELOIT         PTSUNNY   73  70  88 NE5       29.93R
HAYS           CLOUDY    77  61  57 W5        29.93R
RUSSELL        PTSUNNY   75  70  84 N7        29.92R
CONCORDIA      CLOUDY    78  67  68 S10       29.96R
SALINA         LGT RAIN  81  72  74 SE7       29.92S
TOPEKA           N/A     84  70  62 W6        29.90R



USA.gov is the U.S. government's official web portal to all federal, state and local government web resources and services.